Location: Staunton
(38.1490°N, 79.0720°W)
Time: 21:16:45
(UTC-04:00)

ISS - Pass Details

Date: 06 July 2020
Orbit: 417 x 421 km, 51.6° (Epoch: 08 July)

Event Time Altitude Azimuth Distance (km) Brightness Sun altitude
Exits shadow 02:02:36 15° 44° (NE) 1,229 -0.8 -28.4°
Drops below altitude 10° 02:03:15 10° 46° (NE) 1,494 -0.3 -28.4°
Sets 02:05:22 0° 49° (NE) 2,360 0.8 -28.3°
